Вернуться в каталог

COSMOS 2506 DEB

АктивенSSO
NORAD 47212·DEBRIS·🇷🇺 Russia

Запущен Jun 23, 2015 с Plesetsk Cosmodrome

Loading…

Ближайшие Пролёты (ближайшие 24 часа)

TLE

СвежийSource: Space-Track

Эпоха: Sep 13, 2026, 10:55 UTC

1 47212U 15029C   26256.45544881  .00002848  00000-0  44709-3 0  9992
2 47212  98.1103 329.3184 0006282 200.2080 159.8880 14.73402321310639

Отслеживайте COSMOS 2506 DEB в реальном времени с AllMySat

Download on the App Store